Montoursville, PA

5:38 PM EST on February 26, 2017 (GMT -0500)
Williamsport Rgnl

Weather History for KIPT - July, 2013

Change the Weather History Date:

Monday, July 15, 2013

  Actual Average Record
Temperature  
Mean Temperature 81 °F 73 °F  
Max Temperature 94 °F 84 °F 103 °F (1995)
Min Temperature 68 °F 62 °F 48 °F (1930)
Degree Days  
Heating Degree Days 0 0  
Month to date heating degree days 0 0  
Since 1 June heating degree days 9 37  
Since 1 July heating degree days 0 0  
Cooling Degree Days 16 8  
Month to date cooling degree days 190 117  
Year to date cooling degree days 421 306  
Since 1 June cooling degree days 350 263  
Growing Degree Days 30 (Base 50)    
Moisture  
Dew Point 69 °F    
Average Humidity 69    
Maximum Humidity 97    
Minimum Humidity 41    
Precipitation  
Precipitation 0.00 in 0.14 in 1.32 in (1972)
Month to date precipitation 1.94 1.99  
Year to date precipitation 18.68 20.82  
Sea Level Pressure  
Sea Level Pressure 30.25 in    
Wind  
Wind Speed 3 mph (West)    
Max Wind Speed 9 mph    
Max Gust Speed 13 mph    
Visibility 10 miles    
Events      
T = Trace of Precipitation, MM = Missing Value Source: NWS Daily Summary

Daily Weather History Graph

Daily Weather History Graph

Search for Another Location

Airport or City:

Trip Planner

Search our weather history database for the weather conditions in past years. The results will help you decide how hot, cold, wet, or windy it might be!

Date:

Astronomy

Jul. 15, 2013 Rise Set
Actual Time 5:47 AM EDT 8:39 PM EDT
Civil Twilight 5:15 AM EDT 9:11 PM EDT
Nautical Twilight 4:33 AM EDT 9:52 PM EDT
Astronomical Twilight 3:46 AM EDT 10:40 PM EDT
Moon 1:10 PM EDT (7/15) No Moon Set
Length of Visible Light 15h 56m
Length of Day
14h 51m
Waxing Crescent, 45% of the Moon is Illuminated
Jul 15
Waxing Crescent
Jul 15
First Quarter
Jul 22
Full
Jul 29
Last Quarter
Aug 6
New

Hourly Weather History & Observations

Time (EDT) Temp. Heat Index Dew Point Humidity Pressure Visibility Wind Dir Wind Speed Gust Speed Precip Events Conditions
12:54 AM 71.1 °F - 69.1 °F 93% 30.26 in 10.0 mi Calm Calm - N/A   Clear
1:54 AM 71.1 °F - 68.0 °F 90% 30.27 in 10.0 mi Calm Calm - N/A   Clear
2:54 AM 70.0 °F - 66.9 °F 90% 30.27 in 10.0 mi Calm Calm - N/A   Clear
3:54 AM 69.1 °F - 66.9 °F 93% 30.27 in 10.0 mi Calm Calm - N/A   Clear
4:16 AM 69.8 °F - 66.2 °F 88% 30.28 in 10.0 mi Calm Calm - N/A   Partly Cloudy
4:54 AM 68.0 °F - 66.0 °F 93% 30.27 in 10.0 mi Calm Calm - N/A   Mostly Cloudy
5:54 AM 69.1 °F - 66.9 °F 93% 30.28 in 10.0 mi Calm Calm - N/A   Overcast
6:54 AM 70.0 °F - 68.0 °F 93% 30.29 in 4.0 mi Calm Calm - N/A   Overcast
7:54 AM 70.0 °F - 68.0 °F 93% 30.30 in 7.0 mi West 5.8 mph - N/A   Overcast
8:31 AM 71.6 °F - 69.8 °F 94% 30.31 in 7.0 mi SW 5.8 mph - N/A   Overcast
8:42 AM 71.6 °F - 69.8 °F 94% 30.31 in 10.0 mi SSW 6.9 mph - N/A   Scattered Clouds
8:54 AM 73.0 °F - 69.1 °F 87% 30.30 in 10.0 mi Variable 4.6 mph - N/A   Scattered Clouds
9:54 AM 80.1 °F 82.9 °F 69.1 °F 69% 30.28 in 10.0 mi West 8.1 mph - N/A   Clear
10:54 AM 82.9 °F 86.5 °F 69.1 °F 63% 30.27 in 10.0 mi Variable 3.5 mph - N/A   Partly Cloudy
11:54 AM 87.1 °F 92.0 °F 70.0 °F 57% 30.25 in 10.0 mi SW 5.8 mph - N/A   Clear
12:54 PM 90.0 °F 95.4 °F 70.0 °F 52% 30.24 in 10.0 mi SW 3.5 mph - N/A   Clear
1:54 PM 91.9 °F 98.4 °F 71.1 °F 50% 30.22 in 10.0 mi Variable 5.8 mph - N/A   Scattered Clouds
2:54 PM 91.0 °F 97.6 °F 71.1 °F 52% 30.21 in 10.0 mi West 4.6 mph - N/A   Scattered Clouds
3:54 PM 91.9 °F 95.9 °F 68.0 °F 45% 30.20 in 10.0 mi North 4.6 mph - N/A   Mostly Cloudy
4:54 PM 93.0 °F 96.4 °F 66.9 °F 42% 30.19 in 10.0 mi North 6.9 mph - N/A   Scattered Clouds
5:54 PM 93.0 °F 96.4 °F 66.9 °F 42% 30.17 in 10.0 mi NNW 4.6 mph - N/A   Partly Cloudy
6:54 PM 91.9 °F 96.9 °F 69.1 °F 47% 30.17 in 10.0 mi NNW 3.5 mph - N/A   Clear
7:54 PM 86.0 °F 93.8 °F 73.9 °F 67% 30.18 in 10.0 mi Calm Calm - N/A   Clear
8:54 PM 81.0 °F 85.2 °F 72.0 °F 74% 30.18 in 10.0 mi Calm Calm - N/A   Partly Cloudy
9:54 PM 81.0 °F 84.9 °F 71.1 °F 72% 30.20 in 10.0 mi SSW 4.6 mph - N/A   Mostly Cloudy
10:54 PM 79.0 °F - 71.1 °F 77% 30.22 in 10.0 mi Calm Calm - N/A   Overcast
11:54 PM 77.0 °F - 71.1 °F 82% 30.22 in 10.0 mi Calm Calm - N/A   Clear